Simultaneous Nadir Overpasses (SNOs) Predictions

Prediction of SNOs between AQUA and METOP-B Satellite Orbit:

Table of predicted SNOs for the next 14.0 days since TLE Epoch: 12/10/2022
Index Date (AQUA) Time (AQUA) Lat,Lon (AQUA) SZA (AQUA ) Date (METOP-B) Time (METOP-B) Lat,Lon (METOP-B) SZA (METOP-B ) Distance(km) Time Diff (sec)
1 12/10/2022 07:47:18 74.12, 58.31 96.97 12/10/2022 07:46:55 74.13, 58.24 96.98 2.40 23
2 12/10/2022 08:36:45 -74.23,-134.29 82.92 12/10/2022 08:37:35 -74.21,-134.24 82.94 2.81 50
3 12/13/2022 02:31:01 -74.14, -42.63 82.79 12/13/2022 02:30:39 -74.13, -42.70 82.80 2.75 22
4 12/13/2022 03:20:29 74.22, 124.82 97.30 12/13/2022 03:21:17 74.22, 124.88 97.30 1.62 48
5 12/15/2022 21:14:44 74.12,-143.50 97.36 12/15/2022 21:14:21 74.13,-143.61 97.37 3.63 23
6 12/15/2022 22:04:11 -74.22, 23.92 82.54 12/15/2022 22:05:01 -74.21, 23.92 82.55 0.62 50
7 12/18/2022 15:58:25 -74.15, 115.53 82.51 12/18/2022 15:58:03 -74.16, 115.54 82.49 1.19 22
8 12/18/2022 16:47:52 74.20, -76.93 97.54 12/18/2022 16:48:42 74.21, -77.01 97.56 2.95 50
9 12/21/2022 10:42:07 74.17, 14.58 97.57 12/21/2022 10:41:45 74.15, 14.59 97.55 2.67 22
10 12/21/2022 11:31:33 -74.21,-177.86 82.40 12/21/2022 11:32:25 -74.24,-177.87 82.38 2.76 52



Historial Predications of SNOs between AQUA and METOP-B
